{"data":{"norad_id":52549,"intl_designator":"2022-051S","name":"STARLINK-3935","alt_names":[],"object_type":"PAYLOAD","status":"ACTIVE","operator":null,"country":"US","launch_date":"2022-05-13","launch_site_code":"AFWTR","launch_vehicle":null,"mission":null,"orbit_class":"UNKNOWN","rcs_meters":null,"size_class":null,"mass_kg":null,"dimensions":null,"purposes":["comms"],"wikipedia_slug":null,"has_3d_model":false,"image_url":null,"decayed_at":null,"tle_current":{"epoch":"2026-05-24T17:17:37.198752Z","epoch_age_seconds":100031,"freshness":"FRESH","line1":"1 52549U 22051S   26144.72056943 -.00000494  00000+0 -12950-4 0  9997","line2":"2 52549  53.2130 147.8048 0001086  70.4120 289.6989 15.08840348222921","mean_motion":15.08840348,"eccentricity":0.0001086,"inclination_deg":53.213,"raan_deg":147.8048,"arg_perigee_deg":70.412,"mean_anomaly_deg":289.6989,"bstar":-1.295e-5,"rev_number":22292,"period_min":95.437532665981,"perigee_km":538.9910435728,"apogee_km":540.49360696225,"semimajor_km":6917.8793252675,"source":"CELESTRAK","updated_at":"2026-05-25T13:38:17.164030Z"}}}